TimeCST,TemperatureF,Dew PointF,Humidity,Sea Level PressureIn,VisibilityMPH,Wind Direction,Wind SpeedMPH,Gust SpeedMPH,PrecipitationIn,Events,Conditions,WindDirDegrees,DateUTC
12:15 AM,30.6,29.1,94,29.98,4.0,Calm,Calm,-,N/A,,Overcast,0,2013-12-02 06:15:00
12:35 AM,31.8,30.7,96,29.96,4.0,Calm,Calm,-,N/A,,Overcast,0,2013-12-02 06:35:00
12:55 AM,30.9,29.5,94,29.95,4.0,ENE,5.8,-,N/A,,Overcast,70,2013-12-02 06:55:00
1:15 AM,31.1,30.0,96,29.96,4.0,Calm,Calm,-,N/A,,Overcast,0,2013-12-02 07:15:00
1:35 AM,31.8,30.6,95,29.96,4.0,NE,3.5,-,N/A,,Overcast,40,2013-12-02 07:35:00
1:55 AM,31.8,30.6,95,29.96,4.0,Calm,Calm,-,N/A,,Overcast,0,2013-12-02 07:55:00
2:15 AM,32.0,31.1,96,29.95,4.0,Calm,Calm,-,N/A,,Overcast,0,2013-12-02 08:15:00
2:35 AM,32.4,31.5,96,29.94,5.0,East,4.6,-,N/A,,Overcast,80,2013-12-02 08:35:00
2:55 AM,32.5,31.5,96,29.94,4.0,ENE,3.5,-,N/A,,Overcast,70,2013-12-02 08:55:00
3:15 AM,33.1,32.0,96,29.93,4.0,ENE,3.5,-,N/A,,Overcast,70,2013-12-02 09:15:00
3:35 AM,33.1,32.0,96,29.92,4.0,East,3.5,-,N/A,,Overcast,90,2013-12-02 09:35:00
3:55 AM,33.8,32.0,93,29.92,5.0,East,4.6,-,N/A,,Overcast,90,2013-12-02 09:55:00
4:15 AM,34.0,32.2,93,29.91,5.0,ESE,3.5,-,N/A,,Overcast,110,2013-12-02 10:15:00
4:35 AM,34.2,32.2,92,29.91,5.0,ESE,4.6,-,N/A,,Overcast,110,2013-12-02 10:35:00
4:55 AM,33.8,32.0,93,29.91,5.0,SSE,3.5,-,N/A,,Overcast,160,2013-12-02 10:55:00
5:15 AM,33.8,32.2,94,29.90,5.0,SSE,5.8,-,N/A,,Overcast,160,2013-12-02 11:15:00
5:35 AM,33.8,32.0,93,29.91,5.0,SE,3.5,-,N/A,,Overcast,140,2013-12-02 11:35:00
5:55 AM,34.7,32.9,93,29.91,5.0,ESE,4.6,-,N/A,,Overcast,110,2013-12-02 11:55:00
6:15 AM,34.7,32.4,91,29.90,5.0,East,4.6,-,N/A,,Overcast,100,2013-12-02 12:15:00
6:35 AM,34.7,32.0,90,29.91,5.0,East,4.6,-,N/A,,Overcast,100,2013-12-02 12:35:00
6:55 AM,34.7,32.0,90,29.90,5.0,ESE,5.8,-,N/A,,Overcast,110,2013-12-02 12:55:00
7:15 AM,34.7,31.6,89,29.89,5.0,ESE,5.8,-,N/A,,Overcast,110,2013-12-02 13:15:00
7:35 AM,34.9,30.9,85,29.89,5.0,ESE,5.8,-,N/A,,Overcast,120,2013-12-02 13:35:00
7:55 AM,35.2,29.5,80,29.89,7.0,SE,6.9,-,N/A,,Overcast,130,2013-12-02 13:55:00
8:15 AM,35.6,30.0,80,29.89,7.0,ESE,6.9,-,N/A,,Overcast,120,2013-12-02 14:15:00
8:35 AM,36.0,29.8,78,29.89,7.0,SE,6.9,-,N/A,,Overcast,130,2013-12-02 14:35:00
8:55 AM,36.5,29.1,75,29.89,7.0,SE,6.9,-,N/A,,Overcast,130,2013-12-02 14:55:00
9:15 AM,37.4,28.6,70,29.89,7.0,SE,5.8,-,N/A,,Overcast,130,2013-12-02 15:15:00
9:35 AM,37.9,27.9,67,29.89,10.0,SE,9.2,-,N/A,,Overcast,130,2013-12-02 15:35:00
9:55 AM,38.3,27.3,65,29.88,10.0,SE,9.2,-,N/A,,Overcast,130,2013-12-02 15:55:00
10:15 AM,38.8,27.1,63,29.87,10.0,SE,12.7,18.4,N/A,,Mostly Cloudy,130,2013-12-02 16:15:00
10:35 AM,38.8,26.4,61,29.87,10.0,ESE,11.5,-,N/A,,Scattered Clouds,120,2013-12-02 16:35:00
10:55 AM,39.4,27.0,61,29.87,10.0,SE,10.4,-,N/A,,Mostly Cloudy,130,2013-12-02 16:55:00
11:15 AM,40.5,27.3,59,29.86,10.0,SE,10.4,-,N/A,,Overcast,140,2013-12-02 17:15:00
11:35 AM,40.8,27.3,59,29.85,10.0,SE,10.4,-,N/A,,Overcast,140,2013-12-02 17:35:00
11:55 AM,41.0,27.0,57,29.84,10.0,ESE,10.4,-,N/A,,Overcast,110,2013-12-02 17:55:00
12:15 PM,41.0,27.0,57,29.83,10.0,SE,13.8,-,N/A,,Overcast,130,2013-12-02 18:15:00
12:35 PM,41.2,27.1,57,29.82,10.0,ESE,8.1,-,N/A,,Mostly Cloudy,120,2013-12-02 18:35:00
12:55 PM,41.4,26.8,56,29.82,10.0,ESE,9.2,-,N/A,,Mostly Cloudy,110,2013-12-02 18:55:00
1:15 PM,41.5,26.6,55,29.81,10.0,East,11.5,-,N/A,,Overcast,100,2013-12-02 19:15:00
1:35 PM,41.2,26.4,56,29.81,10.0,ESE,10.4,-,N/A,,Overcast,120,2013-12-02 19:35:00
1:55 PM,41.0,26.2,56,29.80,10.0,ESE,8.1,-,N/A,,Overcast,120,2013-12-02 19:55:00
2:15 PM,41.2,26.1,55,29.79,10.0,SE,10.4,-,N/A,,Overcast,130,2013-12-02 20:15:00
2:35 PM,41.2,25.9,55,29.79,10.0,SE,9.2,-,N/A,,Overcast,130,2013-12-02 20:35:00
2:55 PM,41.0,25.9,55,29.79,10.0,ESE,9.2,-,N/A,,Overcast,120,2013-12-02 20:55:00
3:15 PM,40.6,25.7,55,29.79,10.0,ESE,9.2,-,N/A,,Overcast,120,2013-12-02 21:15:00
3:35 PM,40.3,26.4,58,29.79,10.0,East,11.5,-,N/A,,Overcast,100,2013-12-02 21:35:00
3:55 PM,39.4,27.3,62,29.79,10.0,ESE,10.4,-,N/A,,Overcast,120,2013-12-02 21:55:00
4:15 PM,38.7,27.5,64,29.79,10.0,ESE,6.9,-,N/A,,Overcast,120,2013-12-02 22:15:00
4:35 PM,38.3,27.3,65,29.79,10.0,SE,6.9,-,N/A,,Overcast,130,2013-12-02 22:35:00
4:55 PM,38.3,27.7,66,29.78,10.0,ESE,6.9,-,N/A,,Overcast,120,2013-12-02 22:55:00
5:15 PM,38.3,28.0,67,29.78,10.0,ESE,6.9,-,N/A,,Overcast,110,2013-12-02 23:15:00
5:35 PM,38.3,28.4,68,29.77,10.0,ESE,9.2,-,N/A,,Overcast,120,2013-12-02 23:35:00
5:55 PM,38.3,28.4,68,29.77,10.0,ESE,9.2,-,N/A,,Overcast,110,2013-12-02 23:55:00
6:15 PM,37.9,28.8,70,29.77,10.0,ESE,11.5,-,N/A,,Light Drizzle,110,2013-12-03 00:15:00
6:35 PM,37.4,29.5,73,29.78,10.0,ESE,6.9,-,N/A,Rain,Light Rain,110,2013-12-03 00:35:00
6:55 PM,37.0,30.9,79,29.79,7.0,ESE,8.1,-,N/A,Rain,Light Rain,120,2013-12-03 00:55:00
7:15 PM,36.1,31.8,84,29.78,7.0,ESE,6.9,-,N/A,Rain,Light Rain,120,2013-12-03 01:15:00
7:35 PM,36.0,32.0,86,29.78,7.0,ESE,8.1,-,N/A,Rain,Light Rain,110,2013-12-03 01:35:00
7:55 PM,35.8,32.0,86,29.77,7.0,East,10.4,-,N/A,,Light Drizzle,100,2013-12-03 01:55:00
8:15 PM,35.8,32.2,87,29.77,5.0,ESE,9.2,-,N/A,Rain,Light Rain,110,2013-12-03 02:15:00
8:35 PM,36.0,32.9,89,29.77,5.0,ESE,9.2,-,N/A,Rain,Rain,110,2013-12-03 02:35:00
8:55 PM,36.0,33.1,89,29.76,5.0,ESE,9.2,-,N/A,,Light Drizzle,110,2013-12-03 02:55:00
9:15 PM,36.0,33.4,91,29.76,4.0,ESE,9.2,-,N/A,Rain,Light Rain,120,2013-12-03 03:15:00
9:35 PM,36.1,34.2,93,29.76,4.0,ESE,10.4,-,N/A,Rain,Light Rain,120,2013-12-03 03:35:00
9:55 PM,36.1,34.3,93,29.76,3.0,ESE,9.2,-,N/A,Rain,Light Rain,110,2013-12-03 03:55:00
10:15 PM,36.0,34.7,95,29.75,2.5,ESE,13.8,-,N/A,,Overcast,110,2013-12-03 04:15:00
10:35 PM,36.1,34.7,94,29.76,3.0,ESE,8.1,-,N/A,,Overcast,110,2013-12-03 04:35:00
10:55 PM,36.5,34.7,93,29.76,4.0,ESE,9.2,-,N/A,,Overcast,110,2013-12-03 04:55:00
11:15 PM,36.5,34.9,94,29.76,3.0,ESE,8.1,-,N/A,,Overcast,110,2013-12-03 05:15:00
11:35 PM,36.5,34.9,94,29.75,3.0,ESE,8.1,-,N/A,,Overcast,120,2013-12-03 05:35:00
11:55 PM,36.5,35.2,95,29.75,3.0,ESE,8.1,-,N/A,,Overcast,120,2013-12-03 05:55:00